Weather History for KRUG - November, 2012

Change the Weather History Date:

Saturday, November 24, 2012

  Actual Average (WUND) Record (WUND)
Temperature  
Mean Temperature 20 °F -  
Max Temperature 35 °F - - (-1)
Min Temperature 5 °F - - (-1)
Degree Days  
Heating Degree Days 45    
Moisture  
Dew Point 17 °F    
Average Humidity 84    
Maximum Humidity 93    
Minimum Humidity 74    
Precipitation  
Precipitation 0.00 in - - ()
Sea Level Pressure  
Sea Level Pressure 29.88 in    
Wind  
Wind Speed 15 mph (SW)    
Max Wind Speed 30 mph    
Max Gust Speed 34 mph    
Visibility 10 miles    
Events Rain    
Averages and records for this station are not official NWS values.
T = Trace of Precipitation, MM = Missing Value Source: NWS Daily Summary

Daily Weather History Graph

Daily Weather History Graph

Search for Another Location

Airport or City:

Trip Planner

Search our weather history database for the weather conditions in past years. The results will help you decide how hot, cold, wet, or windy it might be!

Date:

Astronomy

Nov. 24, 2012 Rise Set
Actual Time 8:01 AM CST 4:51 PM CST
Civil Twilight 7:26 AM CST 5:27 PM CST
Nautical Twilight 6:47 AM CST 6:05 PM CST
Astronomical Twilight 6:10 AM CST 6:43 PM CST
Moon 2:49 PM CST (11/24) 4:06 AM CST (11/24)
Length of Visible Light 10h 00m
Length of Day
8h 50m
Waxing Gibbous, 87% of the Moon is Illuminated
Nov 24
Waxing Gibbous
Nov 28
Full
Dec 6
Last Quarter
Dec 13
New
Dec 19
First Quarter

Hourly Weather History & Observations

Time (CST) Temp. Windchill Dew Point Humidity Pressure Visibility Wind Dir Wind Speed Gust Speed Precip Events Conditions
12:15 AM 5.0 °F -10.8 °F 1.4 °F 85% 30.22 in 10.0 mi SE 11.5 mph - N/A   Scattered Clouds
12:35 AM 6.8 °F -8.6 °F 1.4 °F 79% 30.20 in 10.0 mi SE 11.5 mph - N/A   Mostly Cloudy
12:55 AM 6.8 °F -8.6 °F 1.4 °F 79% 30.18 in 10.0 mi SE 11.5 mph - N/A   Mostly Cloudy
1:15 AM 6.8 °F -10.7 °F 3.2 °F 85% 30.15 in 10.0 mi SE 15.0 mph - N/A   Partly Cloudy
1:35 AM 8.6 °F -8.9 °F 5.0 °F 85% 30.13 in 10.0 mi SE 16.1 mph - N/A   Mostly Cloudy
1:55 AM 8.6 °F -6.3 °F 5.0 °F 85% 30.13 in 10.0 mi ESE 11.5 mph - N/A   Overcast
2:35 AM 8.6 °F -6.3 °F 5.0 °F 85% 30.12 in 10.0 mi SE 11.5 mph - N/A   Overcast
2:55 AM 10.4 °F -4.1 °F 6.8 °F 85% 30.12 in 10.0 mi SE 11.5 mph - N/A   Overcast
3:15 AM 10.4 °F -4.1 °F 6.8 °F 85% 30.10 in 10.0 mi SE 11.5 mph - N/A   Overcast
3:35 AM 10.4 °F -2.4 °F 6.8 °F 85% 30.09 in 10.0 mi SE 9.2 mph - N/A   Overcast
3:55 AM 12.2 °F -1.8 °F 8.6 °F 85% 30.06 in 10.0 mi SE 11.5 mph - N/A   Overcast
4:15 AM 14.0 °F 1.2 °F 8.6 °F 79% 30.04 in 10.0 mi SE 10.4 mph 18.4 mph N/A   Overcast
4:35 AM 14.0 °F -0.8 °F 8.6 °F 79% 30.04 in 10.0 mi SE 13.8 mph 19.6 mph N/A   Overcast
4:55 AM 14.0 °F -2.0 °F 10.4 °F 86% 30.00 in 10.0 mi SE 16.1 mph - N/A   Overcast
5:15 AM 14.0 °F -2.5 °F 10.4 °F 86% 29.98 in 10.0 mi SE 17.3 mph 23.0 mph N/A   Overcast
5:35 AM 15.8 °F -0.6 °F 10.4 °F 79% 29.95 in 10.0 mi SSE 18.4 mph 24.2 mph N/A   Overcast
5:55 AM 15.8 °F -0.2 °F 10.4 °F 79% 29.95 in 10.0 mi SSE 17.3 mph 25.3 mph N/A   Overcast
6:15 AM 15.8 °F -0.2 °F 12.2 °F 86% 29.94 in 10.0 mi SSE 17.3 mph 25.3 mph N/A   Overcast
6:35 AM 15.8 °F 0.9 °F 12.2 °F 86% 29.94 in 10.0 mi SSE 15.0 mph 24.2 mph N/A   Overcast
6:55 AM 15.8 °F -1.1 °F 14.0 °F 93% 29.91 in 10.0 mi SSE 19.6 mph 23.0 mph N/A   Overcast
7:15 AM 17.6 °F 3.7 °F 14.0 °F 86% 29.90 in 10.0 mi South 13.8 mph 25.3 mph N/A   Overcast
7:35 AM 17.6 °F 2.7 °F 14.0 °F 86% 29.89 in 10.0 mi SSE 16.1 mph 23.0 mph N/A   Overcast
7:55 AM 17.6 °F 2.2 °F 14.0 °F 86% 29.87 in 10.0 mi SSE 17.3 mph 24.2 mph N/A   Overcast
8:15 AM 19.4 °F 4.5 °F 14.0 °F 80% 29.86 in 10.0 mi SSE 17.3 mph 21.9 mph N/A   Mostly Cloudy
8:35 AM 19.4 °F 5.5 °F 15.8 °F 86% 29.85 in 10.0 mi South 15.0 mph 23.0 mph N/A   Clear
8:55 AM 19.4 °F 5.5 °F 15.8 °F 86% 29.83 in 10.0 mi South 15.0 mph 21.9 mph N/A   Clear
9:15 AM 19.4 °F 6.0 °F 15.8 °F 86% 29.82 in 10.0 mi South 13.8 mph 20.7 mph N/A   Clear
9:35 AM 19.4 °F 7.2 °F 15.8 °F 86% 29.83 in 10.0 mi South 11.5 mph - N/A   Partly Cloudy
9:55 AM 21.2 °F 9.5 °F 15.8 °F 80% 29.81 in 10.0 mi South 11.5 mph - N/A   Scattered Clouds
10:15 AM 23.0 °F 11.1 °F 17.6 °F 80% 29.81 in 10.0 mi SSW 12.7 mph 18.4 mph N/A   Clear
10:35 AM 23.0 °F 13.1 °F 17.6 °F 80% 29.81 in 10.0 mi SSW 9.2 mph 19.6 mph N/A   Partly Cloudy
10:55 AM 24.8 °F 13.4 °F 17.6 °F 74% 29.79 in 10.0 mi SSW 12.7 mph - N/A   Clear
11:15 AM 24.8 °F 14.6 °F 17.6 °F 74% 29.77 in 9.0 mi South 10.4 mph - N/A   Partly Cloudy
11:35 AM 24.8 °F 13.4 °F 19.4 °F 80% 29.77 in 4.0 mi SSW 12.7 mph - N/A   Mostly Cloudy
11:55 AM 24.8 °F 13.4 °F 21.2 °F 86% 29.75 in 6.0 mi SSW 12.7 mph - N/A Rain Light Freezing Rain
12:15 PM 26.6 °F 16.2 °F 23.0 °F 86% 29.73 in 10.0 mi SW 11.5 mph - N/A   Mostly Cloudy
12:35 PM 26.6 °F 16.8 °F 23.0 °F 86% 29.73 in 10.0 mi SW 10.4 mph - N/A   Mostly Cloudy
12:55 PM 26.6 °F 15.7 °F 23.0 °F 86% 29.72 in 10.0 mi SW 12.7 mph - N/A   Overcast
1:15 PM 28.4 °F 18.0 °F 24.8 °F 86% 29.71 in 10.0 mi WSW 12.7 mph - N/A   Scattered Clouds
1:35 PM 28.4 °F 18.0 °F 24.8 °F 86% 29.70 in 10.0 mi WSW 12.7 mph - N/A   Clear
1:55 PM 32.0 °F 22.5 °F 26.6 °F 80% 29.70 in 10.0 mi West 12.7 mph - N/A   Clear
2:15 PM 32.0 °F 22.5 °F 26.6 °F 80% 29.69 in 10.0 mi West 12.7 mph - N/A   Clear
2:35 PM 33.8 °F 22.8 °F 28.4 °F 81% 29.69 in 10.0 mi WNW 18.4 mph - N/A   Clear
2:55 PM 35.6 °F 25.2 °F 30.2 °F 81% 29.70 in 10.0 mi WNW 18.4 mph 24.2 mph N/A   Scattered Clouds
3:15 PM 33.8 °F 22.2 °F 28.4 °F 81% 29.71 in 10.0 mi WNW 20.7 mph - N/A   Scattered Clouds
3:35 PM 33.8 °F 21.6 °F 28.4 °F 81% 29.72 in 10.0 mi NW 23.0 mph 28.8 mph N/A   Mostly Cloudy
3:55 PM 32.0 °F 18.9 °F 28.4 °F 87% 29.74 in 10.0 mi NW 24.2 mph 32.2 mph N/A   Overcast
4:15 PM 32.0 °F 18.6 °F 26.6 °F 80% 29.74 in 10.0 mi NW 25.3 mph 33.4 mph N/A   Overcast
4:35 PM 30.2 °F 17.4 °F 26.6 °F 86% 29.77 in 10.0 mi NW 20.7 mph 28.8 mph N/A   Overcast
4:55 PM 30.2 °F 17.4 °F 26.6 °F 86% 29.78 in 10.0 mi NW 20.7 mph 28.8 mph N/A   Overcast
5:15 PM 28.4 °F 12.7 °F 26.6 °F 93% 29.79 in 10.0 mi NW 29.9 mph 34.5 mph N/A   Overcast
5:35 PM 28.4 °F 14.1 °F 24.8 °F 86% 29.80 in 10.0 mi NNW 24.2 mph - N/A   Overcast
5:55 PM 28.4 °F 13.8 °F 24.8 °F 86% 29.81 in 10.0 mi NW 25.3 mph 31.1 mph N/A   Overcast
6:15 PM 26.6 °F 11.7 °F 24.8 °F 93% 29.82 in 10.0 mi NW 24.2 mph 28.8 mph N/A   Overcast
6:35 PM 26.6 °F 12.7 °F 24.8 °F 93% 29.83 in 10.0 mi NW 20.7 mph 32.2 mph N/A   Overcast
6:55 PM 24.8 °F 8.4 °F 23.0 °F 93% 29.84 in 10.0 mi NNW 27.6 mph 34.5 mph N/A   Overcast
7:15 PM 23.0 °F 6.6 °F 19.4 °F 86% 29.85 in 10.0 mi NW 25.3 mph 32.2 mph N/A   Overcast
7:35 PM 23.0 °F 8.0 °F 19.4 °F 86% 29.87 in 10.0 mi NW 20.7 mph 26.5 mph N/A   Overcast
7:55 PM 23.0 °F 8.7 °F 19.4 °F 86% 29.86 in 10.0 mi NW 18.4 mph - N/A   Overcast
8:15 PM 23.0 °F 8.0 °F 19.4 °F 86% 29.88 in 10.0 mi NW 20.7 mph - N/A   Overcast
8:35 PM 23.0 °F 7.6 °F 19.4 °F 86% 29.87 in 10.0 mi NW 21.9 mph 27.6 mph N/A   Overcast
8:55 PM 23.0 °F 7.2 °F 19.4 °F 86% 29.88 in 10.0 mi NW 23.0 mph 27.6 mph N/A   Overcast
9:15 PM 23.0 °F 9.2 °F 19.4 °F 86% 29.89 in 10.0 mi NW 17.3 mph - N/A   Overcast
9:35 PM 23.0 °F 9.6 °F 19.4 °F 86% 29.89 in 10.0 mi NW 16.1 mph 27.6 mph N/A   Overcast
9:55 PM 23.0 °F 8.7 °F 19.4 °F 86% 29.90 in 10.0 mi NW 18.4 mph 28.8 mph N/A   Overcast
10:15 PM 23.0 °F 8.3 °F 17.6 °F 80% 29.90 in 10.0 mi NW 19.6 mph 25.3 mph N/A   Overcast
10:35 PM 23.0 °F 9.2 °F 17.6 °F 80% 29.91 in 10.0 mi NW 17.3 mph 23.0 mph N/A   Overcast
10:55 PM 23.0 °F 8.3 °F 17.6 °F 80% 29.90 in 10.0 mi NW 19.6 mph 24.2 mph N/A   Overcast
11:15 PM 21.2 °F 7.3 °F 17.6 °F 86% 29.90 in 10.0 mi NW 16.1 mph 21.9 mph N/A   Overcast
11:35 PM 21.2 °F 10.9 °F 17.6 °F 86% 29.91 in 10.0 mi NW 9.2 mph - N/A   Overcast
11:55 PM 21.2 °F 7.8 °F 17.6 °F 86% 29.91 in 10.0 mi WNW 15.0 mph - N/A   Overcast